Current Version              Previous Version:    01  02  03  04  05  06  07  08  09  10  11  12  13  14  15  16  17  18  19  20  21  22  23  24  25  26  27  28  29  30  
   31  32  33  34  35  36  37  38  39  40  41  42  43  44  45  46  47  48  49  50  51  52  53  54  55  56  57  58  59  60  

[Printable]
427
ASUS44 KFWD 311515
RWRTX
NORTH TEXAS HOURLY WEATHER ROUNDUP
NATIONAL WEATHER SERVICE FORT WORTH TX
1000 AM CDT THU JUL 31 2014

NOTE: "FAIR" INDICATES FEW OR NO CLOUDS BELOW 12,000 FEET WITH NO
SIGNIFICANT WEATHER AND/OR OBSTRUCTIONS TO VISIBILITY.

TXZ118-119-311600-
DALLAS/FORT WORTH METROPLEX

CITY           SKY/WX    TMP DP  RH WIND       PRES   REMARKS
DFW AIRPORT    CLOUDY    80  66  62 SW8       29.96R
DALLAS LOVE    PTSUNNY   80  71  74 CALM      29.96S
FTW MEACHAM    LGT RAIN  73  70  88 N8        29.97R FOG
DAL-EXECUTIVE  MOSUNNY   81  70  69 VRB7      29.96S
FTW-ALLIANCE   PTSUNNY   72  69  90 N13       29.97R
FTW-NAS-JRB    LGT RAIN  77  71  82 NW13      30.02R FOG
FTW-SPINKS     PTSUNNY   81  66  61 CALM      29.98R
ARLINGTON      MOSUNNY   80  67  64 SW5       29.96S
GRAND PRAIRIE  MOSUNNY   79  68  69 SW9       29.98R
ADDISON        CLOUDY    75  72  88 E6        29.97S
MESQUITE       CLOUDY    75  73  94 CALM        N/A
LANCASTER      PTSUNNY   80  70  72 S7        29.97S
$$

TXZ091>094-102>105-117-120-121-131>134-311600-
NORTH CENTRAL TEXAS

CITY           SKY/WX    TMP DP  RH WIND       PRES   REMARKS
SHRMAN/DENISON CLOUDY    70  68  92 N7        30.00R
GAINESVILLE    CLOUDY    66  66  99 N10       30.03R FOG
BOWIE          CLOUDY    68  66  95 N10G17    30.04R
BRIDGEPORT     CLOUDY    73  65  77 N9        30.03R
DECATUR        CLOUDY    69  68  99 N7        30.02R FOG
DENTON         CLOUDY    71  70  96 NW10      29.98R
MCKINNEY       LGT RAIN  73  71  93 CALM      29.97S
GREENVILLE     LGT RAIN  72  70  94 SE8       29.98F
ROCKWALL       LGT RAIN  73  73  98 SW9       29.96R
TERRELL        CLOUDY    77  75  93 SE9       29.98S
WAXAHACHIE     PTSUNNY   80  68  65 S10G17    29.97S
CLEBURNE       CLOUDY    75  73  94 W10       30.00R
GRANBURY       CLOUDY    75  69  80 NW8       30.01S
$$

TXZ083>090-098>101-113>116-127>130-139>142-154-155-311600-
WESTERN NORTH TEXAS

CITY           SKY/WX    TMP DP  RH WIND       PRES   REMARKS
WICHITA FALLS  CLOUDY    70  64  83 N14       30.06R
WF-KICKAPOO    CLOUDY    71  65  81 NE14      30.07S
VERNON         CLOUDY    70  64  81 N13       30.11R
ABILENE        CLOUDY    70  65  84 N16       30.10S
ABILENE-DYESS  LGT RAIN  68  64  88 N15       30.11R
BRECKENRIDGE   CLOUDY    72  69  90 NW8       30.06R FOG
GRAHAM         CLOUDY    71  66  85 N16       30.03S
MINERAL WELLS  CLOUDY    72  69  90 N16       30.00R
STEPHENVILLE   CLOUDY    73  66  80 NW10      30.06R
COMANCHE       CLOUDY    73  65  77 NW10G17   30.05R
COLEMAN        CLOUDY    73  63  69 N16       30.08R
BRADY          CLOUDY    73  64  73 N14       30.08R
$$

TXZ143>147-156>162-174-175-311600-
CENTRAL TEXAS

CITY           SKY/WX    TMP DP  RH WIND       PRES   REMARKS
WACO           CLOUDY    80  73  79 S8        29.97R
WACO-TSTC      PTSUNNY   81  73  78 S8        29.97R
WACO-MCGREGOR  PTSUNNY   81  70  69 S9        29.99S
HILLSBORO      MOSUNNY   82  69  64 SW12      29.97S
CORSICANA      CLOUDY    80  74  81 S13       29.98F
MEXIA          CLOUDY    79  74  86 S7        29.97F
HEARNE         CLOUDY   N/A N/A N/A S7        29.99S
CAMERON        CLOUDY    81  74  79 SW8       29.99S
TEMPLE         PTSUNNY   81  70  69 S12       29.96F
KILLEEN        CLOUDY    82  72  69 SW6       29.99S
KILLEEN-SKYLRK PTSUNNY   82  70  65 S8        29.99S
FORT HOOD      PTSUNNY   84  72  67 S9        29.99S
GATESVILLE     PTSUNNY   79  70  73 N6        30.02R
HAMILTON       PTSUNNY   78  67  69 N16       30.03S
$$

TXZ095>097-106>112-122>126-135>138-148>153-164>167-311600-
EAST TEXAS

CITY           SKY/WX    TMP DP  RH WIND       PRES   REMARKS
PARIS          CLOUDY    68  63  83 SE14      30.01F
SULPHUR SPRNGS RAIN      71  70  98 SE9       30.01F
CLARKSVILLE    CLOUDY    68  67  98 E7        30.03S
MOUNT PLEASANT CLOUDY    68  67  97 SE7       30.05S
GILMER         RAIN      70  70 100 SE8       30.06S
MINEOLA        RAIN      70  70 100 SE6       30.01S
TYLER          CLOUDY    72  71  97 E9        30.01F
LONGVIEW       TSTM      68  66  93 CALM      30.05R
MARSHALL       CLOUDY    71  68  91 CALM      30.07S
ATHENS         CLOUDY    73  72  94 SE7       29.98F
JACKSONVILLE   CLOUDY    72  69  89 CALM      30.06R
HENDERSON      HVY RAIN  68  68  98 CALM      30.07R
NACOGDOCHES    CLOUDY    72  66  83 SE7       30.03S
LUFKIN         PTSUNNY   76  68  76 E3        30.02R
$$

SUPPLEMENTAL OBSERVATIONS (CENTRAL)

CITY           SKY/WX    TMP DP  RH WIND       PRES   REMARKS
LAKE TEXOMA      N/A     68  68 100 N6          N/A
PAT MAYSE LAKE   N/A     66  64  94 E9          N/A
LAKE LIMESTONE   N/A     81  79  94 S5          N/A
MCGREGOR         N/A     81  72  74 S7          N/A
$$

SUPPLEMENTAL OBSERVATIONS (WEST)

CITY           SKY/WX    TMP DP  RH WIND       PRES   REMARKS
MILLERS CREEK    N/A     68  63  83 N10         N/A
GRANBURY         N/A     73  68  83 NW13G21     N/A
COMANCHE         N/A     73  66  78 NW13G21     N/A
HAMBY            N/A     70  66  88 N10         N/A
$$

SUPPLEMENTAL OBSERVATIONS (EAST)

CITY           SKY/WX    TMP DP  RH WIND       PRES   REMARKS
TEXARKANA        N/A     68  64  88 E2          N/A
LINDEN           N/A     68  64  88 SE3         N/A
CADDO LAKE       N/A     70  68  94 S2          N/A
LUFKIN           N/A     75  70  83 MISG        N/A
N SABINE NF      N/A     72  68  88 MISG        N/A
$$

SUPPLEMENTAL OBSERVATIONS ARE A COLLECTION OF AUTOMATED INSTRUMENTS
THAT ARE MAINTAINED BY A VARIETY OF FEDERAL AND STATE AGENCIES.
CERTAIN ELEMENTS...SUCH AS HUMIDITY VALUES AND SUSTAINED WIND
SPEEDS...MAY BE APPROXIMATED.